loading
|
Showing default

ACS 3, 59588

Orbit data source: Space-Track

ACS 3, 59588 is a payload satellite owned by ARC (US) in LEO that was launched on Tue, 23 Apr 2024 UTC via an ELECTRON launch vehicle from the Rocket Lab Launch Complex (RLLC). Payloads include a variety of satellites, spacecraft, and rockets equipped with specific instruments for various scientific and technological missions. These include communications satellites like Starlink; space stations such as the ISS; scientific satellites like the Hubble; Earth observation satellites from companies like Planet Labs, Umbra, and HawkEye 360; GPS; miniature CubeSats for education and research; and military/defense satellites.

Loading next visibility...
Loading greatness...
ACS 3 details
Identifier
59588, 2024-077B
Orbit
LEO
Last TLE update9 hours ago
Origin
Flag of USARC (US)
ManufacturerARC/NANAVU
Mission statusOperational
MissionUnknown
Bus & MotorCUBESAT 12U, Unknown motor
Mass16.1 kg wet, 16.1 kg dry
Launch date (UTC)
2024-04-23 (5 months ago)
Launch vehicle
ELECTRON
Launch site
Rocket Lab Launch Complex (RLLC)
Object type
Payload
Rocket body
Debris
Radar Cross SectionMedium (>0.1 m² and <1 m²)

Expand to show TLE details & history

TLE from 9 hours ago
0 ACS 3
1 59588U 24077B   24261.56140796  .00083743  00000-0  95302-1 0  9993
2 59588  97.4227 308.2879 0042726 215.9139 143.9139 13.69054274 20032
Epoch: 2024-09-17T13:28Z
Definitive object data (Epoch: 2024-09-17T13:28:25.647Z)
Latitude-0.00006°
Longitude109.20675°
Altitude1,031.387 km
Speed7.323 km/s
True Right ascension20h 33m 09s
True Declination0° 00' 00"
Sunlit
Object was in full shadow at TLE epoch
Predictive object data (real-time)
Latitude76.02523°
Longitude-39.10929°
Altitude1,027.859 km
Speed7.338 km/s
Apparent Right ascension04h 59m 07s
Apparent Declination33° 17' 33"
Sunlit
Object is in daylight
Predictive observer data (real-time)
Local Sidereal Time15:33:32
Azimuth341.67° N
Elevation-14.164°
Doppler factor1
Orbital elements
Apogee1,031.664 km
Perigee968.615 km
Semi-major axis7,378.276 km
Eccentricity0.0042726
Inclination97.4227°
RAAN308.2879°
Arg. of periapsis215.9139°
True anomaly144.20104°
Mean anomaly143.9139°
Eccentric anomaly144.05759°
Mean motion3.42461 °/min
BSTAR0.095302
Period105.12 mins
No data available
Other satellites on launch #77 in the year 2024 (2024-04-23 UTC)

ACS 3 Visibility forecast

Observer location: 39.9160978°, -105.1181434

ACS 3 is not visible in the next 10 days
Span
Click to sort rows by Start time (UTC) header in descending order
Start Az.
Max El. time (UTC)
Max El. Az.
Max El.
End time (UTC)
End Az.